^^
Datos históricos de la estación: Murcia-Puente Tocinos
Diario Informe para Noviembre 16, 2017 Unidades:  Métrico    Inglés   Ambas
« Anterior Día
Siguiente Día »
Diario Semanal Mensual Anual Configurable
  Máximo: Mínimo: Media:
Temperatura: 20.2 °C 7.1 °C 12.9 °C
Punto de rocio: 10.9 °C -0.9 °C 5 °C
Humedad: 83% 26% 62%
Velocidad viento: 16.1km/h 0.0km/h 6.1km/h
Racha viento: 25.9km/h - -
Viento- - SE
Presión: 1019.9 hPa 1016.8 hPa -
Precipitación: 0.0 mm    
Historical Graphs
 
 
Tabla de datos para Noviembre 16, 2017
Hora Temperatura Punto de rocio Presión Viento Velocidad viento Racha viento Humedad Intensidad lluvia(por hora) Nubes
00:02 11.8 °C 6.7 °C 1017.5 hPa SSW 6.4 km/h 11.1 km/h 71% 0.0 mm CLR
00:07 11.6 °C 6.7 °C 1017.5 hPa South 6.4 km/h 11.1 km/h 72% 0.0 mm CLR
00:12 11.5 °C 6.6 °C 1017.5 hPa SSW 6.9 km/h 9.3 km/h 72% 0.0 mm CLR
00:13 11.5 °C 6.4 °C 1017.5 hPa SSW 6.9 km/h 7.6 km/h 71% 0.0 mm CLR
00:18 11.4 °C 6.3 °C 1017.5 hPa South 6.9 km/h 9.3 km/h 71% 0.0 mm CLR
00:23 11.4 °C 6.3 °C 1017.8 hPa SSW 6.9 km/h 7.4 km/h 71% 0.0 mm CLR
00:28 11.3 °C 6.4 °C 1017.8 hPa South 5.0 km/h 7.4 km/h 72% 0.0 mm CLR
00:33 11.3 °C 6.2 °C 1017.8 hPa South 5.0 km/h 7.4 km/h 71% 0.0 mm CLR
00:34 11.3 °C 6.2 °C 1017.8 hPa SSW 5.0 km/h 7.4 km/h 71% 0.0 mm CLR
00:39 11.2 °C 6.1 °C 1017.8 hPa SSW 5.8 km/h 8.4 km/h 71% 0.0 mm CLR
00:44 11.2 °C 6.1 °C 1017.8 hPa SSW 4.8 km/h 9.7 km/h 71% 0.0 mm CLR
00:49 11.1 °C 5.8 °C 1017.8 hPa SSW 6.4 km/h 9.3 km/h 70% 0.0 mm CLR
00:54 11.1 °C 5.8 °C 1017.8 hPa SSW 8.0 km/h 9.7 km/h 70% 0.0 mm CLR
00:59 11.1 °C 5.8 °C 1017.8 hPa SSW 8.0 km/h 9.7 km/h 70% 0.0 mm CLR
01:04 11.1 °C 5.8 °C 1017.8 hPa SSE 6.4 km/h 9.3 km/h 70% 0.0 mm CLR
01:09 11.1 °C 5.8 °C 1017.8 hPa South 4.8 km/h 9.7 km/h 70% 0.0 mm CLR
01:14 11.0 °C 5.5 °C 1017.8 hPa South 5.8 km/h 9.5 km/h 69% 0.0 mm CLR
01:19 10.9 °C 5.7 °C 1017.8 hPa South 6.4 km/h 9.3 km/h 70% 0.0 mm CLR
01:24 10.7 °C 5.7 °C 1017.5 hPa SSE 6.4 km/h 7.4 km/h 71% 0.0 mm CLR
01:29 10.6 °C 5.8 °C 1017.5 hPa SSE 5.0 km/h 5.6 km/h 72% 0.0 mm CLR
01:34 10.4 °C 5.8 °C 1017.5 hPa SE 5.0 km/h 7.4 km/h 73% 0.0 mm CLR
01:39 10.2 °C 5.6 °C 1017.5 hPa SSE 3.9 km/h 5.8 km/h 73% 0.0 mm CLR
01:44 10.1 °C 5.5 °C 1017.5 hPa SSE 3.9 km/h 7.4 km/h 73% 0.0 mm CLR
01:49 10.0 °C 5.4 °C 1017.5 hPa South 4.7 km/h 7.4 km/h 73% 0.0 mm CLR
01:54 10.0 °C 5.4 °C 1017.5 hPa SSE 4.7 km/h 7.4 km/h 73% 0.0 mm CLR
01:59 10.0 °C 5.2 °C 1017.5 hPa SSE 4.7 km/h 7.4 km/h 72% 0.0 mm CLR
02:04 10.0 °C 5.2 °C 1017.5 hPa South 4.7 km/h 4.7 km/h 72% 0.0 mm CLR
02:09 10.1 °C 5.3 °C 1017.5 hPa South 3.9 km/h 3.9 km/h 72% 0.0 mm CLR
02:15 10.1 °C 5.1 °C 1017.5 hPa South 3.9 km/h 7.4 km/h 71% 0.0 mm CLR
02:20 10.1 °C 4.9 °C 1017.5 hPa SSE 3.9 km/h 5.6 km/h 70% 0.0 mm CLR
02:25 10.1 °C 5.3 °C 1017.5 hPa SSE 3.9 km/h 3.9 km/h 72% 0.0 mm CLR
02:30 10.0 °C 5.2 °C 1017.5 hPa SE 2.9 km/h 3.7 km/h 72% 0.0 mm CLR
02:35 9.8 °C 5.2 °C 1017.5 hPa SE 2.9 km/h 5.6 km/h 73% 0.0 mm CLR
02:40 9.7 °C 4.9 °C 1017.8 hPa SSE 3.9 km/h 7.4 km/h 72% 0.0 mm CLR
02:45 9.4 °C 4.6 °C 1017.8 hPa South 3.9 km/h 7.4 km/h 72% 0.0 mm CLR
02:50 9.3 °C 4.3 °C 1017.8 hPa SSE 4.7 km/h 7.4 km/h 71% 0.0 mm CLR
02:55 9.3 °C 3.9 °C 1017.5 hPa SSE 4.7 km/h 9.3 km/h 69% 0.0 mm CLR
03:00 9.3 °C 3.7 °C 1017.5 hPa South 6.4 km/h 9.3 km/h 68% 0.0 mm CLR
03:05 9.3 °C 3.5 °C 1017.5 hPa SSE 6.4 km/h 9.3 km/h 67% 0.0 mm CLR
03:10 9.4 °C 3.6 °C 1017.5 hPa SSW 7.6 km/h 9.3 km/h 67% 0.0 mm CLR
03:15 9.4 °C 3.6 °C 1017.5 hPa SSW 7.6 km/h 7.6 km/h 67% 0.0 mm CLR
03:20 9.4 °C 3.8 °C 1017.5 hPa South 6.4 km/h 8.4 km/h 68% 0.0 mm CLR
03:25 9.5 °C 4.1 °C 1017.5 hPa SSE 6.4 km/h 9.3 km/h 69% 0.0 mm CLR
03:30 9.5 °C 4.3 °C 1017.5 hPa South 6.4 km/h 9.3 km/h 70% 0.0 mm CLR
03:35 9.4 °C 4.4 °C 1017.5 hPa SSE 6.4 km/h 10.0 km/h 71% 0.0 mm CLR
03:40 9.4 °C 4.8 °C 1017.5 hPa SE 6.9 km/h 9.3 km/h 73% 0.0 mm CLR
03:45 9.3 °C 4.9 °C 1017.5 hPa SSE 6.9 km/h 7.4 km/h 74% 0.0 mm CLR
03:50 9.2 °C 5.0 °C 1017.5 hPa South 4.7 km/h 5.6 km/h 75% 0.0 mm CLR
03:55 9.2 °C 5.0 °C 1017.5 hPa SSE 4.7 km/h 5.6 km/h 75% 0.0 mm CLR
04:00 9.2 °C 5.2 °C 1017.5 hPa South 3.9 km/h 5.6 km/h 76% 0.0 mm CLR
04:05 9.1 °C 5.1 °C 1017.5 hPa SSE 3.9 km/h 5.6 km/h 76% 0.0 mm CLR
04:10 9.0 °C 5.0 °C 1017.5 hPa SSE 2.9 km/h 3.7 km/h 76% 0.0 mm CLR
04:15 8.9 °C 4.9 °C 1017.5 hPa SE 2.9 km/h 7.4 km/h 76% 0.0 mm CLR
04:20 8.8 °C 5.0 °C 1017.5 hPa SSE 3.9 km/h 7.4 km/h 77% 0.0 mm CLR
04:22 8.8 °C 5.0 °C 1017.5 hPa SSE 3.9 km/h 7.4 km/h 77% 0.0 mm CLR
04:23 8.7 °C 4.9 °C 1017.5 hPa South 3.9 km/h 7.4 km/h 77% 0.0 mm CLR
04:28 8.6 °C 4.4 °C 1017.5 hPa SSE 6.4 km/h 11.1 km/h 75% 0.0 mm CLR
04:33 8.4 °C 4.1 °C 1017.5 hPa SSE 6.4 km/h 11.1 km/h 74% 0.0 mm CLR
04:38 8.3 °C 4.1 °C 1017.5 hPa SSE 7.6 km/h 9.3 km/h 75% 0.0 mm CLR
04:43 8.2 °C 3.8 °C 1017.5 hPa SE 7.6 km/h 9.3 km/h 74% 0.0 mm CLR
04:48 8.2 °C 4.1 °C 1017.5 hPa SSE 6.4 km/h 11.1 km/h 75% 0.0 mm CLR
04:53 8.1 °C 3.9 °C 1017.5 hPa SSE 6.4 km/h 11.1 km/h 75% 0.0 mm CLR
04:58 8.1 °C 3.9 °C 1017.5 hPa SSE 6.4 km/h 11.1 km/h 75% 0.0 mm CLR
05:03 8.1 °C 3.9 °C 1017.5 hPa SSE 6.4 km/h 11.1 km/h 75% 0.0 mm CLR
05:08 8.1 °C 3.7 °C 1017.5 hPa SSW 7.6 km/h 9.3 km/h 74% 0.0 mm CLR
05:13 8.1 °C 3.7 °C 1017.5 hPa SE 7.6 km/h 7.6 km/h 74% 0.0 mm CLR
05:18 8.2 °C 3.8 °C 1017.5 hPa SSW 5.0 km/h 9.3 km/h 74% 0.0 mm CLR
05:23 8.2 °C 3.8 °C 1017.5 hPa SW 5.0 km/h 7.4 km/h 74% 0.0 mm CLR
05:28 8.2 °C 3.4 °C 1017.5 hPa SW 6.4 km/h 9.3 km/h 72% 0.0 mm CLR
05:33 8.2 °C 3.3 °C 1017.5 hPa SSW 6.4 km/h 7.4 km/h 71% 0.0 mm CLR
05:38 8.3 °C 3.2 °C 1017.5 hPa SSW 4.7 km/h 7.4 km/h 70% 0.0 mm CLR
05:43 8.3 °C 3.2 °C 1017.5 hPa SSW 4.7 km/h 7.4 km/h 70% 0.0 mm CLR
05:48 8.4 °C 3.2 °C 1017.5 hPa SSE 5.0 km/h 7.4 km/h 70% 0.0 mm CLR
05:53 8.3 °C 3.2 °C 1017.8 hPa South 5.0 km/h 9.3 km/h 70% 0.0 mm CLR
05:58 8.2 °C 3.1 °C 1017.8 hPa SSE 6.4 km/h 11.1 km/h 70% 0.0 mm CLR
06:03 8.2 °C 3.1 °C 1017.8 hPa SSE 6.4 km/h 11.1 km/h 70% 0.0 mm CLR
06:08 8.1 °C 2.9 °C 1017.8 hPa South 6.4 km/h 7.4 km/h 70% 0.0 mm CLR
06:13 8.1 °C 2.8 °C 1017.8 hPa South 6.4 km/h 7.4 km/h 69% 0.0 mm CLR
06:18 8.0 °C 2.4 °C 1017.8 hPa SSW 5.8 km/h 9.3 km/h 68% 0.0 mm CLR
06:23 8.0 °C 2.4 °C 1017.8 hPa South 5.8 km/h 9.5 km/h 68% 0.0 mm CLR
06:28 7.9 °C 2.3 °C 1017.8 hPa SSW 6.4 km/h 8.4 km/h 68% 0.0 mm CLR
06:33 7.9 °C 2.8 °C 1017.8 hPa SSE 6.4 km/h 9.3 km/h 70% 0.0 mm CLR
06:38 7.8 °C 2.7 °C 1017.8 hPa SE 6.4 km/h 11.1 km/h 70% 0.0 mm CLR
06:43 7.7 °C 2.8 °C 1017.8 hPa SSW 6.4 km/h 9.3 km/h 71% 0.0 mm CLR
06:48 7.6 °C 2.7 °C 1017.8 hPa SSE 6.9 km/h 7.4 km/h 71% 0.0 mm CLR
06:53 7.4 °C 2.5 °C 1017.8 hPa SSE 6.9 km/h 12.2 km/h 71% 0.0 mm CLR
06:58 7.3 °C 2.4 °C 1017.8 hPa SSE 6.9 km/h 8.4 km/h 71% 0.0 mm CLR
07:08 7.2 °C 2.5 °C 1018.2 hPa SSE 6.4 km/h 9.5 km/h 72% 0.0 mm CLR
07:13 7.1 °C 2.2 °C 1018.2 hPa SSW 6.4 km/h 9.3 km/h 71% 0.0 mm CLR
07:18 7.1 °C 2.0 °C 1018.2 hPa SSE 7.6 km/h 13.0 km/h 70% 0.0 mm CLR
07:23 7.1 °C 2.0 °C 1018.2 hPa South 7.6 km/h 9.3 km/h 70% 0.0 mm CLR
07:28 7.1 °C 2.0 °C 1018.2 hPa SSE 7.6 km/h 9.3 km/h 70% 0.0 mm CLR
07:33 7.1 °C 1.8 °C 1018.2 hPa SSE 7.6 km/h 11.1 km/h 69% 0.0 mm CLR
07:38 7.2 °C 1.9 °C 1018.5 hPa SSE 8.4 km/h 13.0 km/h 69% 0.0 mm CLR
07:43 7.2 °C 1.7 °C 1018.5 hPa South 8.4 km/h 14.8 km/h 68% 0.0 mm CLR
07:48 7.3 °C 1.8 °C 1018.5 hPa South 8.7 km/h 9.3 km/h 68% 0.0 mm CLR
07:53 7.3 °C 1.8 °C 1018.5 hPa SSE 8.7 km/h 11.1 km/h 68% 0.0 mm CLR
07:58 7.3 °C 1.8 °C 1018.5 hPa South 7.6 km/h 11.1 km/h 68% 0.0 mm CLR
08:03 7.3 °C 1.8 °C 1018.5 hPa SSE 7.6 km/h 9.3 km/h 68% 0.0 mm CLR
08:08 7.3 °C 1.8 °C 1018.5 hPa SSE 6.9 km/h 9.3 km/h 68% 0.0 mm CLR
08:13 7.2 °C 1.7 °C 1018.5 hPa SSE 6.9 km/h 9.3 km/h 68% 0.0 mm CLR
08:18 7.2 °C 1.5 °C 1018.5 hPa SSW 6.9 km/h 11.1 km/h 67% 0.0 mm CLR
08:23 7.2 °C 1.3 °C 1018.8 hPa WSW 6.9 km/h 13.0 km/h 66% 0.0 mm CLR
08:28 7.2 °C 1.1 °C 1018.8 hPa South 8.7 km/h 13.0 km/h 65% 0.0 mm CLR
08:33 7.2 °C 1.1 °C 1018.8 hPa South 8.7 km/h 9.3 km/h 65% 0.0 mm CLR
08:38 7.3 °C 0.9 °C 1018.8 hPa South 8.4 km/h 11.1 km/h 64% 0.0 mm CLR
08:43 7.4 °C 1.1 °C 1018.8 hPa SSW 8.4 km/h 9.3 km/h 64% 0.0 mm CLR
08:48 7.6 °C 0.8 °C 1018.8 hPa South 8.7 km/h 11.1 km/h 62% 0.0 mm CLR
08:53 7.7 °C 0.7 °C 1019.2 hPa South 8.7 km/h 11.1 km/h 61% 0.0 mm CLR
08:58 7.9 °C 0.6 °C 1019.2 hPa SW 7.6 km/h 11.1 km/h 60% 0.0 mm CLR
09:03 8.1 °C 0.8 °C 1019.2 hPa SSW 7.6 km/h 11.1 km/h 60% 0.0 mm CLR
09:13 8.4 °C 0.8 °C 1019.2 hPa South 7.6 km/h 9.3 km/h 59% 0.0 mm CLR
09:18 8.6 °C 0.6 °C 1019.2 hPa South 7.6 km/h 11.1 km/h 57% 0.0 mm CLR
09:23 8.7 °C 0.7 °C 1019.5 hPa South 7.6 km/h 9.3 km/h 57% 0.0 mm CLR
09:28 8.9 °C 0.6 °C 1019.5 hPa South 6.9 km/h 9.3 km/h 56% 0.0 mm CLR
09:33 9.0 °C 0.4 °C 1019.5 hPa South 6.9 km/h 10.0 km/h 55% 0.0 mm CLR
09:38 9.1 °C 0.3 °C 1019.5 hPa SW 7.6 km/h 9.3 km/h 54% 0.0 mm CLR
09:43 9.3 °C 0.2 °C 1019.5 hPa SSW 7.6 km/h 11.1 km/h 53% 0.0 mm CLR
09:48 9.4 °C 0.6 °C 1019.5 hPa SSE 6.4 km/h 9.3 km/h 54% 0.0 mm CLR
09:53 9.7 °C 0.6 °C 1019.5 hPa South 6.4 km/h 11.1 km/h 53% 0.0 mm CLR
09:58 9.9 °C 0.5 °C 1019.5 hPa South 5.8 km/h 9.3 km/h 52% 0.0 mm CLR
10:03 10.1 °C 0.7 °C 1019.5 hPa SSE 5.8 km/h 9.5 km/h 52% 0.0 mm CLR
10:05 10.2 °C 0.8 °C 1019.5 hPa SSE 5.8 km/h 9.3 km/h 52% 0.0 mm CLR
10:10 10.4 °C 0.1 °C 1019.5 hPa South 5.8 km/h 9.3 km/h 49% 0.0 mm CLR
10:15 10.7 °C -0.2 °C 1019.5 hPa South 5.8 km/h 9.3 km/h 47% 0.0 mm CLR
10:20 10.9 °C 0.0 °C 1019.5 hPa South 6.4 km/h 9.3 km/h 47% 0.0 mm CLR
10:25 11.1 °C 0.5 °C 1019.5 hPa South 6.4 km/h 9.3 km/h 48% 0.0 mm CLR
10:30 11.3 °C 0.4 °C 1019.5 hPa SSE 6.4 km/h 9.3 km/h 47% 0.0 mm CLR
10:35 11.4 °C 0.5 °C 1019.5 hPa SSE 6.4 km/h 11.1 km/h 47% 0.0 mm CLR
10:40 11.6 °C 0.7 °C 1019.5 hPa SSE 7.6 km/h 9.3 km/h 47% 0.0 mm CLR
10:45 11.7 °C 0.4 °C 1019.5 hPa South 7.6 km/h 11.1 km/h 46% 0.0 mm CLR
10:50 11.9 °C 0.0 °C 1019.5 hPa SW 7.6 km/h 9.3 km/h 44% 0.0 mm CLR
10:55 12.1 °C 0.2 °C 1019.5 hPa South 7.6 km/h 9.5 km/h 44% 0.0 mm CLR
11:00 12.3 °C 0.1 °C 1019.5 hPa SSE 6.9 km/h 9.3 km/h 43% 0.0 mm CLR
11:05 12.5 °C -0.1 °C 1019.5 hPa SE 6.9 km/h 7.6 km/h 42% 0.0 mm CLR
11:10 12.7 °C 0.1 °C 1019.5 hPa SE 6.4 km/h 7.4 km/h 42% 0.0 mm CLR
11:15 12.9 °C 0.3 °C 1019.5 hPa SE 6.4 km/h 9.3 km/h 42% 0.0 mm CLR
11:20 13.2 °C 0.2 °C 1019.5 hPa SE 6.9 km/h 11.1 km/h 41% 0.0 mm CLR
11:25 13.3 °C -0.1 °C 1019.5 hPa South 6.9 km/h 9.3 km/h 40% 0.0 mm CLR
11:30 13.4 °C 0.1 °C 1019.5 hPa SSW 6.9 km/h 10.3 km/h 40% 0.0 mm CLR
11:35 13.8 °C 0.1 °C 1019.5 hPa South 6.9 km/h 9.3 km/h 39% 0.0 mm CLR
11:40 14.1 °C 0.0 °C 1019.5 hPa SE 5.8 km/h 9.3 km/h 38% 0.0 mm CLR
11:45 14.4 °C 0.2 °C 1019.5 hPa SE 5.8 km/h 7.4 km/h 38% 0.0 mm CLR
11:50 14.7 °C 0.5 °C 1019.5 hPa SSE 5.8 km/h 7.4 km/h 38% 0.0 mm CLR
11:55 14.8 °C 0.2 °C 1019.2 hPa SE 5.8 km/h 7.4 km/h 37% 0.0 mm CLR
12:00 15.1 °C 0.5 °C 1019.2 hPa SW 5.0 km/h 5.0 km/h 37% 0.0 mm CLR
12:05 15.4 °C 0.4 °C 1019.2 hPa SSE 5.0 km/h 5.6 km/h 36% 0.0 mm CLR
12:10 15.7 °C 0.3 °C 1018.8 hPa South 3.2 km/h 8.4 km/h 35% 0.0 mm CLR
12:15 15.9 °C 0.4 °C 1018.8 hPa South 3.2 km/h 5.0 km/h 35% 0.0 mm CLR
12:20 16.0 °C 0.1 °C 1018.8 hPa SSE 4.7 km/h 9.3 km/h 34% 0.0 mm CLR
12:25 16.1 °C 0.2 °C 1018.8 hPa SW 4.7 km/h 5.8 km/h 34% 0.0 mm CLR
12:30 16.3 °C 0.0 °C 1018.8 hPa SSW 4.7 km/h 9.3 km/h 33% 0.0 mm CLR
12:35 16.4 °C 0.5 °C 1018.8 hPa East 4.7 km/h 5.6 km/h 34% 0.0 mm CLR
12:40 16.6 °C 0.2 °C 1018.5 hPa East 4.7 km/h 9.3 km/h 33% 0.0 mm CLR
12:45 16.7 °C 0.3 °C 1018.5 hPa ESE 4.7 km/h 7.4 km/h 33% 0.0 mm CLR
12:50 16.9 °C 0.5 °C 1018.5 hPa East 4.7 km/h 5.6 km/h 33% 0.0 mm CLR
12:55 17.1 °C 0.3 °C 1018.2 hPa ESE 4.7 km/h 7.4 km/h 32% 0.0 mm CLR
13:00 17.4 °C 0.5 °C 1018.2 hPa SE 3.9 km/h 7.4 km/h 32% 0.0 mm CLR
13:05 17.6 °C 0.3 °C 1018.2 hPa ESE 3.9 km/h 5.6 km/h 31% 0.0 mm CLR
13:10 17.8 °C 0.0 °C 1018.2 hPa SE 4.7 km/h 5.6 km/h 30% 0.0 mm CLR
13:15 18.1 °C -0.2 °C 1018.2 hPa SE 4.7 km/h 4.7 km/h 29% 0.0 mm CLR
13:20 18.4 °C -0.4 °C 1018.2 hPa WNW 2.9 km/h 5.6 km/h 28% 0.0 mm CLR
13:25 18.4 °C -0.9 °C 1017.8 hPa WNW 2.9 km/h 3.9 km/h 27% 0.0 mm CLR
13:30 18.6 °C -0.8 °C 1017.8 hPa NW 2.9 km/h 3.7 km/h 27% 0.0 mm CLR
13:35 18.8 °C -0.6 °C 1017.8 hPa SSE 2.9 km/h 7.4 km/h 27% 0.0 mm CLR
13:40 18.9 °C -0.5 °C 1017.8 hPa SSW 3.2 km/h 5.6 km/h 27% 0.0 mm CLR
13:45 19.0 °C -0.4 °C 1017.8 hPa NNW 3.2 km/h 4.7 km/h 27% 0.0 mm CLR
13:50 19.1 °C -0.3 °C 1017.8 hPa North 3.2 km/h 5.6 km/h 27% 0.0 mm CLR
13:55 19.2 °C -0.8 °C 1017.5 hPa SW 3.2 km/h 3.9 km/h 26% 0.0 mm CLR
14:00 19.3 °C -0.2 °C 1017.5 hPa WNW 2.9 km/h 3.7 km/h 27% 0.0 mm CLR
14:05 19.4 °C -0.1 °C 1017.5 hPa NE 2.9 km/h 6.4 km/h 27% 0.0 mm CLR
14:10 19.6 °C 0.6 °C 1017.2 hPa ENE 3.2 km/h 8.4 km/h 28% 0.0 mm CLR
14:20 19.6 °C 1.1 °C 1017.2 hPa NE 3.9 km/h 5.6 km/h 29% 0.0 mm CLR
14:25 19.6 °C 1.1 °C 1017.2 hPa NNW 3.9 km/h 6.4 km/h 29% 0.0 mm CLR
14:30 19.5 °C 1.0 °C 1017.2 hPa NNE 5.0 km/h 8.7 km/h 29% 0.0 mm CLR
14:35 19.6 °C 1.1 °C 1017.2 hPa NNE 5.0 km/h 8.4 km/h 29% 0.0 mm CLR
14:40 19.5 °C 1.4 °C 1017.2 hPa ENE 6.4 km/h 13.0 km/h 30% 0.0 mm CLR
14:45 19.5 °C 1.4 °C 1017.2 hPa NE 6.4 km/h 13.0 km/h 30% 0.0 mm CLR
14:50 19.6 °C 1.6 °C 1017.2 hPa NNE 6.9 km/h 7.4 km/h 30% 0.0 mm CLR
14:55 19.6 °C 1.6 °C 1017.2 hPa NNE 6.9 km/h 12.2 km/h 30% 0.0 mm CLR
15:00 19.6 °C 1.1 °C 1017.2 hPa NNE 6.9 km/h 11.1 km/h 29% 0.0 mm CLR
15:05 19.7 °C 1.6 °C 1017.2 hPa NNE 6.9 km/h 13.0 km/h 30% 0.0 mm CLR
15:10 19.7 °C 1.6 °C 1016.8 hPa NNE 8.4 km/h 13.0 km/h 30% 0.0 mm CLR
15:15 19.8 °C 1.7 °C 1016.8 hPa NNE 8.4 km/h 13.0 km/h 30% 0.0 mm CLR
15:20 19.8 °C 1.7 °C 1016.8 hPa NNE 7.6 km/h 11.1 km/h 30% 0.0 mm CLR
15:25 19.9 °C 2.3 °C 1016.8 hPa NE 7.6 km/h 11.1 km/h 31% 0.0 mm CLR
15:30 19.9 °C 2.7 °C 1016.8 hPa NNE 8.4 km/h 11.1 km/h 32% 0.0 mm CLR
15:35 20.0 °C 2.8 °C 1016.8 hPa ENE 8.4 km/h 9.3 km/h 32% 0.0 mm CLR
15:40 20.1 °C 2.9 °C 1016.8 hPa NNE 6.9 km/h 13.7 km/h 32% 0.0 mm CLR
15:45 20.1 °C 2.9 °C 1016.8 hPa NNE 6.9 km/h 13.0 km/h 32% 0.0 mm CLR
15:50 20.2 °C 2.9 °C 1016.8 hPa NE 8.7 km/h 11.1 km/h 32% 0.0 mm CLR
15:55 20.2 °C 2.9 °C 1016.8 hPa North 8.7 km/h 13.0 km/h 32% 0.0 mm CLR
16:00 20.2 °C 4.2 °C 1016.8 hPa NE 9.5 km/h 11.1 km/h 35% 0.0 mm CLR
16:05 20.0 °C 5.2 °C 1016.8 hPa NE 9.5 km/h 14.8 km/h 38% 0.0 mm CLR
16:10 20.1 °C 8.1 °C 1016.8 hPa ESE 10.3 km/h 13.0 km/h 46% 0.0 mm CLR
16:15 19.8 °C 9.7 °C 1016.8 hPa ESE 10.3 km/h 14.8 km/h 52% 0.0 mm CLR
16:20 19.5 °C 9.9 °C 1016.8 hPa SE 9.5 km/h 11.1 km/h 54% 0.0 mm CLR
16:25 19.4 °C 10.1 °C 1016.8 hPa SE 9.5 km/h 18.5 km/h 55% 0.0 mm CLR
16:30 19.2 °C 10.2 °C 1016.8 hPa SE 10.3 km/h 20.4 km/h 56% 0.0 mm CLR
16:35 19.0 °C 10.6 °C 1016.8 hPa East 10.3 km/h 14.8 km/h 58% 0.0 mm CLR
16:40 18.8 °C 10.6 °C 1017.2 hPa ESE 13.7 km/h 22.2 km/h 59% 0.0 mm CLR
16:45 18.6 °C 10.7 °C 1017.2 hPa ESE 13.7 km/h 24.1 km/h 60% 0.0 mm CLR
16:50 18.4 °C 10.7 °C 1017.2 hPa ESE 16.1 km/h 22.2 km/h 61% 0.0 mm CLR
16:55 18.3 °C 10.9 °C 1017.2 hPa SE 16.1 km/h 22.2 km/h 62% 0.0 mm CLR
17:00 18.2 °C 10.8 °C 1017.2 hPa SE 14.0 km/h 22.2 km/h 62% 0.0 mm CLR
17:01 18.2 °C 10.8 °C 1017.2 hPa ESE 14.0 km/h 22.2 km/h 62% 0.0 mm CLR
17:06 18.1 °C 10.9 °C 1017.2 hPa ESE 14.0 km/h 20.4 km/h 63% 0.0 mm CLR
17:11 17.9 °C 10.8 °C 1017.2 hPa East 14.0 km/h 14.0 km/h 63% 0.0 mm CLR
17:16 17.8 °C 10.7 °C 1017.2 hPa East 14.0 km/h 25.9 km/h 63% 0.0 mm CLR
17:21 17.7 °C 10.8 °C 1017.5 hPa ESE 13.0 km/h 20.9 km/h 64% 0.0 mm CLR
17:26 17.5 °C 10.6 °C 1017.5 hPa SSE 13.0 km/h 16.7 km/h 64% 0.0 mm CLR
17:31 17.4 °C 10.5 °C 1017.5 hPa ESE 13.0 km/h 20.4 km/h 64% 0.0 mm CLR
17:36 17.3 °C 10.7 °C 1017.5 hPa ESE 13.0 km/h 18.5 km/h 65% 0.0 mm CLR
17:41 17.3 °C 10.7 °C 1017.5 hPa SE 11.9 km/h 13.0 km/h 65% 0.0 mm CLR
17:46 17.2 °C 10.6 °C 1017.5 hPa ESE 11.9 km/h 20.4 km/h 65% 0.0 mm
17:51 17.1 °C 10.4 °C 1017.5 hPa ESE 8.7 km/h 13.0 km/h 65% 0.0 mm
17:52 17.0 °C 10.4 °C 1017.5 hPa ESE 8.7 km/h 14.0 km/h 65% 0.0 mm
17:57 16.9 °C 10.5 °C 1017.5 hPa SE 8.7 km/h 16.7 km/h 66% 0.0 mm
18:02 16.8 °C 10.4 °C 1017.5 hPa ESE 10.3 km/h 13.7 km/h 66% 0.0 mm CLR
18:07 16.7 °C 10.3 °C 1017.8 hPa NE 10.3 km/h 11.1 km/h 66% 0.0 mm CLR
18:12 16.5 °C 10.3 °C 1017.8 hPa East 8.7 km/h 16.7 km/h 67% 0.0 mm CLR
18:17 16.4 °C 10.3 °C 1017.8 hPa North 8.7 km/h 11.1 km/h 67% 0.0 mm CLR
18:22 16.4 °C 10.3 °C 1017.8 hPa East 7.6 km/h 9.3 km/h 67% 0.0 mm CLR
18:28 16.3 °C 10.2 °C 1017.8 hPa East 7.6 km/h 13.0 km/h 67% 0.0 mm CLR
18:33 16.2 °C 10.3 °C 1017.8 hPa ESE 7.6 km/h 18.5 km/h 68% 0.0 mm CLR
18:38 16.2 °C 10.3 °C 1017.8 hPa ESE 7.6 km/h 14.8 km/h 68% 0.0 mm CLR
18:42 16.1 °C 10.2 °C 1017.8 hPa ESE 8.7 km/h 14.0 km/h 68% 0.0 mm CLR
18:48 16.1 °C 10.2 °C 1017.8 hPa SE 8.7 km/h 10.0 km/h 68% 0.0 mm CLR
18:53 16.0 °C 10.3 °C 1018.2 hPa SE 8.7 km/h 9.3 km/h 69% 0.0 mm CLR
18:58 15.9 °C 10.2 °C 1018.2 hPa SSE 8.7 km/h 8.7 km/h 69% 0.0 mm CLR
19:03 15.9 °C 10.2 °C 1018.2 hPa SE 6.4 km/h 6.4 km/h 69% 0.0 mm CLR
19:08 15.9 °C 10.2 °C 1018.2 hPa East 3.9 km/h 7.4 km/h 69% 0.0 mm CLR
19:13 15.8 °C 10.1 °C 1018.2 hPa ENE 3.9 km/h 3.9 km/h 69% 0.0 mm CLR
19:18 15.7 °C 10.0 °C 1018.2 hPa NNE 3.9 km/h 7.4 km/h 69% 0.0 mm CLR
19:23 15.5 °C 10.1 °C 1018.5 hPa NE 3.9 km/h 7.4 km/h 70% 0.0 mm CLR
19:28 15.3 °C 10.1 °C 1018.5 hPa ENE 4.7 km/h 5.8 km/h 71% 0.0 mm CLR
19:33 15.2 °C 10.0 °C 1018.5 hPa NE 4.7 km/h 5.6 km/h 71% 0.0 mm CLR
19:38 15.2 °C 10.2 °C 1018.5 hPa NNE 3.9 km/h 7.4 km/h 72% 0.0 mm CLR
19:43 15.1 °C 10.1 °C 1018.5 hPa NNE 3.9 km/h 7.4 km/h 72% 0.0 mm CLR
19:48 14.8 °C 10.0 °C 1018.5 hPa NNE 5.0 km/h 7.4 km/h 73% 0.0 mm CLR
19:53 14.7 °C 9.9 °C 1018.8 hPa NNE 5.0 km/h 5.6 km/h 73% 0.0 mm CLR
19:58 14.7 °C 9.9 °C 1018.8 hPa NNE 2.9 km/h 3.7 km/h 73% 0.0 mm CLR
20:03 14.6 °C 9.8 °C 1018.8 hPa NNE 2.9 km/h 4.7 km/h 73% 0.0 mm CLR
20:08 14.4 °C 9.8 °C 1018.8 hPa NNE 2.9 km/h 3.9 km/h 74% 0.0 mm CLR
20:13 14.3 °C 9.9 °C 1018.8 hPa North 2.9 km/h 5.6 km/h 75% 0.0 mm CLR
20:18 14.2 °C 9.8 °C 1018.8 hPa North 3.9 km/h 5.6 km/h 75% 0.0 mm CLR
20:23 14.1 °C 9.9 °C 1018.8 hPa North 3.9 km/h 5.6 km/h 76% 0.0 mm CLR
20:28 13.9 °C 9.7 °C 1018.8 hPa NNE 3.9 km/h 3.9 km/h 76% 0.0 mm CLR
20:33 13.9 °C 9.7 °C 1018.8 hPa NNW 3.2 km/h 7.4 km/h 76% 0.0 mm CLR
20:38 13.7 °C 9.7 °C 1019.2 hPa NNE 3.9 km/h 7.4 km/h 77% 0.0 mm CLR
20:43 13.6 °C 9.7 °C 1019.2 hPa NNE 3.9 km/h 5.6 km/h 77% 0.0 mm CLR
20:48 13.6 °C 9.7 °C 1019.2 hPa NNE 3.2 km/h 3.7 km/h 77% 0.0 mm CLR
20:53 13.5 °C 9.6 °C 1019.2 hPa North 3.2 km/h 3.7 km/h 77% 0.0 mm CLR
20:58 13.4 °C 9.7 °C 1019.2 hPa North 2.3 km/h 3.7 km/h 78% 0.0 mm CLR
21:03 13.4 °C 9.7 °C 1019.2 hPa North 2.3 km/h 5.6 km/h 78% 0.0 mm CLR
21:08 13.4 °C 9.7 °C 1019.2 hPa North 3.9 km/h 3.9 km/h 78% 0.0 mm CLR
21:13 13.4 °C 9.7 °C 1019.2 hPa North 3.9 km/h 5.6 km/h 78% 0.0 mm CLR
21:18 13.4 °C 9.7 °C 1019.2 hPa North 3.2 km/h 5.6 km/h 78% 0.0 mm CLR
21:23 13.4 °C 9.7 °C 1019.2 hPa North 3.2 km/h 3.7 km/h 78% 0.0 mm CLR
21:28 13.4 °C 9.4 °C 1019.2 hPa North 2.3 km/h 3.7 km/h 77% 0.0 mm CLR
21:33 13.3 °C 9.6 °C 1019.2 hPa North 2.3 km/h 3.7 km/h 78% 0.0 mm CLR
21:38 13.2 °C 9.4 °C 1019.2 hPa North 2.9 km/h 5.6 km/h 78% 0.0 mm CLR
21:43 13.0 °C 9.4 °C 1019.2 hPa North 2.9 km/h 5.0 km/h 79% 0.0 mm CLR
21:48 12.8 °C 9.4 °C 1019.2 hPa North 3.9 km/h 5.6 km/h 80% 0.0 mm CLR
21:53 12.7 °C 9.3 °C 1019.5 hPa North 3.9 km/h 5.6 km/h 80% 0.0 mm CLR
21:58 12.7 °C 9.5 °C 1019.5 hPa North 3.2 km/h 3.7 km/h 81% 0.0 mm CLR
22:03 12.6 °C 9.4 °C 1019.5 hPa North 3.2 km/h 3.7 km/h 81% 0.0 mm CLR
22:08 12.6 °C 9.4 °C 1019.5 hPa Calm   3.7 km/h 81% 0.0 mm CLR
22:13 12.6 °C 9.4 °C 1019.5 hPa Calm   3.7 km/h 81% 0.0 mm CLR
22:18 12.6 °C 9.4 °C 1019.5 hPa North 2.9 km/h 3.7 km/h 81% 0.0 mm CLR
22:23 12.6 °C 9.4 °C 1019.5 hPa North 2.9 km/h 3.7 km/h 81% 0.0 mm CLR
22:28 12.6 °C 9.4 °C 1019.5 hPa North 2.9 km/h 3.7 km/h 81% 0.0 mm CLR
22:33 12.6 °C 9.4 °C 1019.5 hPa North 2.9 km/h 3.7 km/h 81% 0.0 mm CLR
22:38 12.5 °C 9.3 °C 1019.5 hPa North 2.9 km/h 3.7 km/h 81% 0.0 mm CLR
22:39 12.5 °C 9.3 °C 1019.5 hPa North 3.2 km/h 3.2 km/h 81% 0.0 mm CLR
22:44 12.4 °C 9.2 °C 1019.5 hPa North 2.9 km/h 3.7 km/h 81% 0.0 mm CLR
22:49 12.4 °C 9.2 °C 1019.5 hPa SW 2.3 km/h 7.4 km/h 81% 0.0 mm CLR
22:54 12.3 °C 9.1 °C 1019.5 hPa NNW 1.6 km/h 8.0 km/h 81% 0.0 mm CLR
22:59 12.2 °C 9.2 °C 1019.5 hPa SSE 5.0 km/h 5.6 km/h 82% 0.0 mm CLR
23:04 12.2 °C 9.2 °C 1019.5 hPa SSE 5.0 km/h 5.6 km/h 82% 0.0 mm CLR
23:09 12.2 °C 9.4 °C 1019.5 hPa SSE 3.2 km/h 6.4 km/h 83% 0.0 mm CLR
23:14 12.3 °C 9.3 °C 1019.5 hPa SSE 3.2 km/h 3.9 km/h 82% 0.0 mm CLR
23:19 12.3 °C 9.3 °C 1019.5 hPa SSE 3.2 km/h 3.7 km/h 82% 0.0 mm CLR
23:24 12.3 °C 9.3 °C 1019.5 hPa South 3.2 km/h 8.0 km/h 82% 0.0 mm CLR
23:29 12.3 °C 9.3 °C 1019.5 hPa SSW 2.9 km/h 5.8 km/h 82% 0.0 mm CLR
23:34 12.2 °C 9.2 °C 1019.5 hPa SW 2.9 km/h 5.6 km/h 82% 0.0 mm CLR
23:39 12.2 °C 9.2 °C 1019.9 hPa SW 3.2 km/h 8.0 km/h 82% 0.0 mm CLR
23:44 12.1 °C 9.1 °C 1019.9 hPa SW 3.2 km/h 4.7 km/h 82% 0.0 mm CLR
23:49 12.1 °C 9.1 °C 1019.9 hPa SSW 3.2 km/h 5.6 km/h 82% 0.0 mm CLR
23:54 12.1 °C 9.1 °C 1019.9 hPa SW 3.2 km/h 4.8 km/h 82% 0.0 mm CLR
23:59 12.0 °C 9.0 °C 1019.9 hPa SE 3.2 km/h 6.9 km/h 82% 0.0 mm CLR
Murcia-Puente Tocinos, España
Compliments of Weather Underground - 2.75 mb

La estación de MeteoMurcia.com, publica sus datos en los siguientes proyectos:

Meteoclimatic www.awekas.at

W3Counter
Web Analytics